Rome, NY

8:03 AM EST on November 17, 2019 (GMT -0500)
Griffiss

Weather History for KRME - September, 2019

Change the Weather History Date:

Monday, September 2, 2019

  Actual Average Record
Temperature  
Mean Temperature 66 °F -  
Max Temperature 72 °F 74 °F 90 °F (2010)
Min Temperature 59 °F 53 °F 37 °F (2017)
Growing Degree Days 16 (Base 50)    
Moisture  
Dew Point 61 °F    
Average Humidity 85    
Maximum Humidity 97    
Minimum Humidity 68    
Precipitation  
Precipitation 1.15 in - - ()
Sea Level Pressure  
Sea Level Pressure 30.01 in    
Wind  
Wind Speed 6 mph (West)    
Max Wind Speed 13 mph    
Max Gust Speed -    
Visibility 8 miles    
Events Rain    
Averages and records for this station are not official NWS values.
T = Trace of Precipitation, MM = Missing Value Source: NWS Daily Summary

Daily Weather History Graph

Daily Weather History Graph

Search for Another Location

Airport or City:

Astronomy

Sep. 02, 2019 Rise Set
Actual Time 6:26 AM EDT 7:35 PM EDT
Civil Twilight 5:57 AM EDT 8:04 PM EDT
Nautical Twilight 5:22 AM EDT 8:39 PM EDT
Astronomical Twilight 4:45 AM EDT 9:16 PM EDT
Moon 10:11 AM EDT (9/2) 9:49 PM EDT (9/2)
Length of Visible Light 14h 07m
Length of Day
13h 08m
Waxing Crescent, 15% of the Moon is Illuminated
Sep 2
Waxing Crescent
Sep 5
First Quarter
Sep 14
Full
Sep 21
Last Quarter
Sep 28
New

Hourly Weather History & Observations

Time (EDT) Temp. Dew Point Humidity Pressure Visibility Wind Dir Wind Speed Gust Speed Precip Events Conditions
12:46 AM 62.1 °F 60.1 °F 93% 30.13 in 5.0 mi NW 9.2 mph - 0.04 in Rain Heavy Rain
12:53 AM 63.0 °F 61.0 °F 93% 30.13 in 3.0 mi North 5.8 mph - 0.06 in Rain Heavy Rain
1:47 AM 62.6 °F 60.8 °F 94% 30.14 in 2.0 mi Calm Calm - 0.14 in Rain Heavy Rain
1:53 AM 62.1 °F 61.0 °F 96% 30.13 in 1.2 mi NE 3.5 mph - 0.23 in Rain Heavy Rain
2:53 AM 62.1 °F 57.0 °F 84% 30.10 in 8.0 mi East 8.1 mph - 0.16 in Rain Rain
3:53 AM 62.1 °F 57.0 °F 84% 30.07 in 6.0 mi SE 5.8 mph - 0.15 in Rain Rain
4:53 AM 63.0 °F 59.0 °F 87% 30.05 in 6.0 mi East 8.1 mph - 0.27 in Rain Heavy Rain
5:27 AM 63.0 °F 57.0 °F 81% 30.04 in 10.0 mi East 10.4 mph - 0.04 in Rain Light Rain
5:53 AM 63.0 °F 61.0 °F 93% 30.04 in 10.0 mi SSE 6.9 mph - 0.05 in   Overcast
6:12 AM 63.0 °F 61.0 °F 93% 30.03 in 10.0 mi SE 10.4 mph - N/A   Overcast
6:53 AM 63.0 °F 57.9 °F 84% 30.02 in 10.0 mi ESE 5.8 mph - 0.00 in Rain Light Rain
7:53 AM 63.0 °F 62.1 °F 97% 30.01 in 10.0 mi ESE 5.8 mph - 0.01 in Rain Light Rain
8:53 AM 64.9 °F 62.1 °F 90% 30.00 in 10.0 mi East 5.8 mph - 0.00 in   Overcast
9:53 AM 64.9 °F 63.0 °F 93% 30.00 in 4.0 mi Calm Calm - 0.03 in Rain Heavy Rain
9:56 AM 64.9 °F 63.0 °F 93% 30.00 in 1.5 mi Calm Calm - 0.03 in Rain Heavy Rain
10:18 AM 64.0 °F 63.0 °F 96% 30.00 in 3.0 mi SE 3.5 mph - 0.17 in Rain Rain
10:36 AM 64.9 °F 57.9 °F 78% 29.99 in 10.0 mi ESE 3.5 mph - 0.19 in Rain Light Rain
10:53 AM 64.9 °F 63.0 °F 93% 29.98 in 10.0 mi East 3.5 mph - 0.19 in Rain Light Rain
11:11 AM 66.0 °F 64.0 °F 93% 29.98 in 10.0 mi ESE 4.6 mph - 0.00 in   Overcast
11:13 AM 66.0 °F 57.0 °F 73% 29.99 in 10.0 mi ESE 3.5 mph - 0.00 in   Overcast
11:23 AM 66.0 °F 64.0 °F 93% 29.99 in 10.0 mi SE 3.5 mph - 0.00 in   Overcast
11:53 AM 66.9 °F 64.9 °F 93% 29.98 in 5.0 mi SW 4.6 mph - 0.00 in   Overcast
12:03 PM 66.9 °F 64.9 °F 93% 29.98 in 10.0 mi Calm Calm - N/A   Overcast
12:53 PM 66.9 °F 63.0 °F 87% 29.97 in 8.0 mi WNW 9.2 mph - 0.00 in Rain Light Rain
1:04 PM 69.1 °F 62.1 °F 78% 29.98 in 10.0 mi West 6.9 mph - 0.00 in Rain Light Rain
1:13 PM 70.0 °F 64.0 °F 81% 29.98 in 10.0 mi West 8.1 mph - 0.00 in   Overcast
1:24 PM 69.1 °F 64.0 °F 84% 29.98 in 10.0 mi West 8.1 mph - 0.00 in   Overcast
1:41 PM 69.1 °F 64.0 °F 84% 29.98 in 10.0 mi West 9.2 mph - 0.00 in   Overcast
1:53 PM 68.0 °F 64.0 °F 87% 29.97 in 10.0 mi WNW 9.2 mph - 0.00 in Rain Light Rain
1:58 PM 68.0 °F 62.1 °F 81% 29.98 in 10.0 mi West 9.2 mph - 0.00 in Rain Light Rain
2:38 PM 69.1 °F 61.0 °F 75% 29.97 in 10.0 mi WNW 8.1 mph - 0.00 in   Overcast
2:49 PM 69.8 °F 64.4 °F 83% 29.97 in 10.0 mi WNW 10.4 mph - 0.00 in   Overcast
2:53 PM 69.1 °F 63.0 °F 81% 29.96 in 10.0 mi West 8.1 mph - 0.00 in   Overcast
3:53 PM 70.0 °F 62.1 °F 76% 29.96 in 10.0 mi West 8.1 mph - N/A   Overcast
4:20 PM 70.0 °F 62.1 °F 76% 29.97 in 10.0 mi West 10.4 mph - N/A   Overcast
4:28 PM 70.0 °F 62.1 °F 76% 29.97 in 10.0 mi West 9.2 mph - N/A   Overcast
4:38 PM 70.0 °F 62.1 °F 76% 29.97 in 10.0 mi WNW 8.1 mph - N/A   Mostly Cloudy
4:53 PM 72.0 °F 62.1 °F 71% 29.96 in 10.0 mi WSW 10.4 mph - N/A   Overcast
5:01 PM 72.0 °F 62.1 °F 71% 29.97 in 10.0 mi West 11.5 mph - N/A   Mostly Cloudy
5:53 PM 71.1 °F 60.1 °F 68% 29.97 in 10.0 mi NW 12.7 mph - N/A   Scattered Clouds
6:53 PM 66.9 °F 60.1 °F 79% 29.99 in 10.0 mi NW 6.9 mph - N/A   Clear
7:53 PM 64.0 °F 57.9 °F 80% 30.00 in 10.0 mi Calm Calm - N/A   Scattered Clouds
8:53 PM 61.0 °F 57.9 °F 90% 30.01 in 10.0 mi Calm Calm - N/A   Scattered Clouds
9:53 PM 59.0 °F 55.9 °F 90% 30.03 in 10.0 mi Calm Calm - N/A   Clear
10:53 PM 59.0 °F 57.0 °F 93% 30.04 in 10.0 mi Calm Calm - N/A   Overcast
11:53 PM 59.0 °F 57.9 °F 96% 30.04 in 10.0 mi East 3.5 mph - N/A   Overcast